{"data":{"norad_id":67537,"epoch":"2026-09-19T02:32:36.976128Z","epoch_age_seconds":192702,"freshness":"STALE","line1":"1 67537U 26014F   26262.10598352  .00015109  00000+0  46914-3 0  9994","line2":"2 67537  97.2856 147.4728 0000824 107.9287 252.2045 15.33462088 38425","mean_motion":15.33462088,"eccentricity":8.24e-5,"inclination_deg":97.2856,"raan_deg":147.4728,"arg_perigee_deg":107.9287,"mean_anomaly_deg":252.2045,"bstar":0.00046914,"rev_number":3842,"period_min":93.905158221297,"perigee_km":464.92841802764,"apogee_km":466.05624814174,"semimajor_km":6843.6293330847,"source":"CELESTRAK","updated_at":"2026-09-20T09:00:43.566960Z"}}